Location: Ostrava
(49.8330°N, 18.2830°E)
Time: 22:23:31
(UTC+02:00)

Cosmos 2221 - Visible Passes

Search period start: 22 April 2018 00:00
Search period end: 02 May 2018 00:00
Orbit: 592 x 618 km, 82.5° (Epoch: 22 April)

Date Brightness Start Highest point End Pass type
(mag) Time Alt. Az. Time Alt. Az. Time Alt. Az.
23 Apr 5.1 20:31:07 10° SW 20:34:45 27° WNW 20:38:24 10° N visible
24 Apr 6.0 04:55:59 10° NNE 04:58:32 15° ENE 05:01:04 10° E visible
24 Apr 5.7 20:44:56 10° WSW 20:47:53 18° WNW 20:50:51 10° NNW visible
25 Apr 6.2 20:59:25 10° W 21:01:06 12° WNW 21:02:49 10° NW visible
28 Apr 6.2 04:11:06 10° NE 04:12:30 11° ENE 04:13:54 10° E visible
29 Apr 5.7 04:22:51 10° NNE 04:25:43 17° ENE 04:28:35 10° ESE visible
30 Apr 5.2 04:35:16 10° NNE 04:38:52 25° ENE 04:42:30 10° SE visible
